Date String (YYYY-MM-DD hh:mm:ss) UTC,Instrument flags,absolute air pressure of the measurement (hPa),sample flow rate (lpm),inlet stack bypass flow (lpm),air temperature of the measurement (°C),ambient temperature measured by the external sensor (°C),aerosol sample conditioner tube jacket temperature (°C),OPC LED temperature (°C),internal box temperature (°C),relative humidity of the measurement (%),span deviation,mass concentration of particles derived from Lorenz-Mie calculation of OPC scattering (μg/m³),mass concentration of particles derived from Lorenz-Mie calculation of OPC scattering (μg/m³),mass concentration of particles derived from Lorenz-Mie calculation of OPC scattering (μg/m³)
DateTimeUTC,F1_M11,P_M11,Q1_M11,Q2_M11,T1_M11,T2_M11,T3_M11,T4_M11,T5_M11,U1_M11,ZSPAN_M11,X0_M11,X2_M11,X1_M11
2023-10-15 10:00:00,SystemResetWarning,0838.5,5.00,000.00,024.9,023.4,000.0,033.4,026.7,15.3,0000.0,0006.76,0004.32,0003.98
2023-10-15 10:01:00,SystemResetWarning,0838.4,4.99,000.00,024.9,023.4,000.0,033.4,026.7,15.2,0000.0,0007.61,0004.35,0003.98
2023-10-15 10:02:00,SystemResetWarning,0838.4,5.00,000.00,024.9,023.4,000.0,033.4,026.7,15.2,0000.0,0007.85,0004.32,0003.95
2023-10-15 10:03:00,SystemResetWarning,0838.3,5.00,000.00,024.9,023.4,000.0,033.4,026.7,15.2,0000.0,0007.87,0004.29,0003.93
2023-10-15 10:04:00,SystemResetWarning,0838.4,5.00,000.00,024.9,023.4,000.0,033.4,026.7,15.1,0000.0,0007.83,0004.29,0003.93
2023-10-15 10:05:00,SystemResetWarning,0838.5,5.01,000.00,025.0,023.4,000.0,033.4,026.7,15.1,0000.0,0007.83,0004.28,0003.92
2023-10-15 10:06:00,SystemResetWarning,0838.5,5.01,000.00,025.0,023.5,000.0,033.4,026.7,15.2,0000.0,0007.83,0004.28,0003.91
2023-10-15 10:07:00,SystemResetWarning,0838.6,5.00,000.00,025.0,023.5,000.0,033.4,026.7,15.2,0000.0,0007.72,0004.25,0003.90
2023-10-15 10:08:00,SystemResetWarning,0838.6,4.99,000.00,025.0,023.5,000.0,033.4,026.7,15.2,0000.0,0007.69,0004.25,0003.90
2023-10-15 10:09:00,SystemResetWarning,0838.6,5.00,000.00,025.0,023.5,000.0,033.4,026.7,15.2,0000.0,0007.73,0004.27,0003.91
2023-10-15 10:10:00,SystemResetWarning,0838.6,4.99,000.00,025.0,023.5,000.0,033.4,026.7,15.3,0000.0,0007.75,0004.27,0003.92
2023-10-15 10:11:00,SystemResetWarning,0838.6,5.00,000.00,024.9,023.5,000.0,033.3,026.7,15.3,0000.0,0008.08,0004.27,0003.93
2023-10-15 10:12:00,SystemResetWarning,0838.5,5.00,000.00,024.9,023.5,000.0,033.4,026.7,15.3,0000.0,0007.81,0004.20,0003.91
2023-10-15 10:13:00,SystemResetWarning,0838.5,5.00,000.00,025.0,023.5,000.0,033.4,026.7,15.3,0000.0,0007.71,0004.16,0003.89
2023-10-15 10:14:00,SystemResetWarning,0838.5,5.00,000.00,025.0,023.5,000.0,033.4,026.7,15.3,0000.0,0008.14,0004.17,0003.88
2023-10-15 10:15:00,SystemResetWarning,0838.6,5.00,000.00,025.0,023.5,000.0,033.4,026.7,15.3,0000.0,0008.18,0004.16,0003.86
2023-10-15 10:16:00,SystemResetWarning,0838.6,5.00,000.00,025.0,023.5,000.0,033.4,026.7,15.3,0000.0,0008.17,0004.13,0003.84
2023-10-15 10:17:00,SystemResetWarning,0838.6,5.00,000.00,025.0,023.5,000.0,033.4,026.7,15.2,0000.0,0008.11,0004.10,0003.81
2023-10-15 10:18:00,SystemResetWarning,0838.6,5.01,000.00,025.0,023.5,000.0,033.4,026.7,15.2,0000.0,0008.04,0004.07,0003.79
2023-10-15 10:19:00,SystemResetWarning,0838.6,5.00,000.00,025.0,023.5,000.0,033.4,026.7,15.2,0000.0,0007.99,0004.03,0003.76
2023-10-15 10:20:00,SystemResetWarning,0838.6,5.00,000.00,025.0,023.5,000.0,033.4,026.7,15.2,0000.0,0008.58,0004.01,0003.74
2023-10-15 10:21:00,SystemResetWarning,0838.5,5.00,000.00,025.0,023.5,000.0,033.4,026.7,15.3,0000.0,0009.08,0003.96,0003.70
2023-10-15 10:22:00,SystemResetWarning,0838.6,5.00,000.00,025.0,023.5,000.0,033.4,026.7,15.2,0000.0,0008.83,0003.92,0003.67
2023-10-15 10:23:00,SystemResetWarning,0838.6,4.99,000.00,025.0,023.5,000.0,033.4,026.7,15.2,0000.0,0008.56,0003.92,0003.66
2023-10-15 10:24:00,SystemResetWarning,0838.6,5.00,000.00,025.0,023.5,000.0,033.4,026.7,15.2,0000.0,0008.49,0003.91,0003.66
2023-10-15 10:25:00,SystemResetWarning,0838.7,5.00,000.00,025.0,023.5,000.0,033.4,026.7,15.2,0000.0,0007.56,0003.89,0003.65
2023-10-15 10:26:00,SystemResetWarning,0838.6,5.00,000.00,025.0,023.5,000.0,033.4,026.7,15.2,0000.0,0007.49,0003.86,0003.66
2023-10-15 10:27:00,SystemResetWarning,0838.7,5.00,000.00,025.0,023.5,000.0,033.4,026.7,15.2,0000.0,0007.90,0003.86,0003.67
2023-10-15 10:28:00,SystemResetWarning,0838.7,4.99,000.00,025.0,023.5,000.0,033.4,026.7,15.2,0000.0,0008.48,0003.90,0003.68
2023-10-15 10:29:00,SystemResetWarning,0838.8,5.00,000.00,025.0,023.5,000.0,033.4,026.7,15.2,0000.0,0008.49,0003.91,0003.69
2023-10-15 10:30:00,SystemResetWarning,0838.8,5.00,000.00,025.0,023.5,000.0,033.4,026.7,15.2,0000.0,0008.65,0003.94,0003.70
2023-10-15 10:31:00,SystemResetWarning,0838.8,5.00,000.00,025.0,023.6,000.0,033.4,026.8,15.1,0000.0,0008.44,0003.96,0003.70
2023-10-15 10:32:00,SystemResetWarning,0838.8,5.00,000.00,025.0,023.6,000.0,033.4,026.8,15.1,0000.0,0007.67,0003.98,0003.71
2023-10-15 10:33:00,SystemResetWarning,0838.8,5.00,000.00,025.0,023.6,000.0,033.4,026.8,15.1,0000.0,0007.68,0003.98,0003.72
2023-10-15 10:34:00,SystemResetWarning,0838.8,5.00,000.00,025.0,023.6,000.0,033.4,026.8,15.1,0000.0,0007.75,0003.99,0003.72
2023-10-15 10:35:00,SystemResetWarning,0838.8,5.01,000.00,025.0,023.6,000.0,033.4,026.8,15.1,0000.0,0008.00,0004.10,0003.78
2023-10-15 10:36:00,SystemResetWarning,0838.8,5.00,000.00,025.0,023.6,000.0,033.4,026.7,15.2,0000.0,0008.48,0004.23,0003.89
2023-10-15 10:37:00,SystemResetWarning,0838.8,5.00,000.00,025.0,023.6,000.0,033.4,026.7,15.2,0000.0,0008.81,0004.36,0003.98
2023-10-15 10:38:00,SystemResetWarning,0838.8,5.00,000.00,025.0,023.6,000.0,033.4,026.7,15.2,0000.0,0008.52,0004.46,0004.07
2023-10-15 10:39:00,SystemResetWarning,0838.8,5.00,000.00,025.0,023.6,000.0,033.4,026.7,15.2,0000.0,0007.99,0004.49,0004.13
2023-10-15 10:40:00,SystemResetWarning,0838.8,5.00,000.00,025.0,023.6,000.0,033.4,026.7,15.2,0000.0,0008.09,0004.53,0004.15
2023-10-15 10:41:00,SystemResetWarning,0838.8,5.00,000.00,025.0,023.6,000.0,033.4,026.8,15.2,0000.0,0008.24,0004.57,0004.19
2023-10-15 10:42:00,SystemResetWarning,0838.8,5.00,000.00,025.0,023.6,000.0,033.4,026.8,15.2,0000.0,0008.26,0004.61,0004.25
2023-10-15 10:43:00,SystemResetWarning,0838.8,5.00,000.00,025.0,023.6,000.0,033.4,026.8,15.3,0000.0,0008.37,0004.73,0004.34
2023-10-15 10:44:00,SystemResetWarning,0838.8,5.00,000.00,025.0,023.6,000.0,033.4,026.8,15.3,0000.0,0008.52,0004.85,0004.44
2023-10-15 10:45:00,SystemResetWarning,0838.9,5.00,000.00,025.0,023.6,000.0,033.4,026.8,15.2,0000.0,0008.73,0004.95,0004.54
2023-10-15 10:46:00,SystemResetWarning,0838.9,4.99,000.00,025.0,023.6,000.0,033.4,026.8,15.2,0000.0,0009.29,0004.97,0004.58
2023-10-15 10:47:00,SystemResetWarning,0838.9,5.00,000.00,025.0,023.6,000.0,033.4,026.8,15.2,0000.0,0009.00,0004.94,0004.59
2023-10-15 10:48:00,SystemResetWarning,0838.9,4.99,000.00,025.0,023.6,000.0,033.4,026.8,15.2,0000.0,0008.80,0004.93,0004.59
2023-10-15 10:49:00,SystemResetWarning,0838.8,5.00,000.00,025.1,023.6,000.0,033.4,026.8,15.3,0000.6,0008.76,0004.92,0004.61
2023-10-15 10:50:00,SystemResetWarning,0838.8,5.00,000.00,025.1,023.6,000.0,033.4,026.8,15.3,0000.8,0008.96,0004.96,0004.65
2023-10-15 10:51:00,SystemResetWarning,0838.8,5.00,000.00,025.0,023.6,000.0,033.4,026.8,15.2,0001.0,0009.22,0005.03,0004.72
2023-10-15 10:52:00,SystemResetWarning,0838.9,5.00,000.00,025.0,023.5,000.0,033.4,026.7,15.2,0000.8,0009.11,0005.11,0004.78
2023-10-15 10:53:00,SystemResetWarning,0838.9,5.00,000.00,025.0,023.5,000.0,033.4,026.8,15.2,0001.5,0009.86,0005.16,0004.83
2023-10-15 10:54:00,SystemResetWarning,0838.8,5.00,000.00,025.0,023.5,000.0,033.4,026.7,15.2,0001.2,0009.90,0005.15,0004.85
2023-10-15 10:55:00,SystemResetWarning,0838.9,5.00,000.00,025.0,023.5,000.0,033.4,026.8,15.1,0001.1,0009.89,0005.15,0004.87
2023-10-15 10:56:00,SystemResetWarning,0838.9,5.00,000.00,025.0,023.5,000.0,033.4,026.8,15.2,0000.5,0009.88,0005.17,0004.87
2023-10-15 10:57:00,SystemResetWarning,0838.9,5.00,000.00,025.0,023.5,000.0,033.4,026.8,15.1,0000.6,0009.20,0005.17,0004.89
2023-10-15 10:58:00,SystemResetWarning,0838.9,5.00,000.00,025.0,023.5,000.0,033.4,026.7,15.1,0001.1,0009.22,0005.15,0004.87
2023-10-15 10:59:00,SystemResetWarning,0838.9,5.00,000.00,025.0,023.5,000.0,033.4,026.7,15.0,0001.6,0009.18,0005.13,0004.84
